Flag for U.S.A. Weather past 2 weeks in Worcester, Massachusetts, U.S.A.

Now
68 °F

Passing clouds.


Feels Like: 68 °F
Forecast: 59 / 75 °F
Wind: 6 mph from Southwest

Location: Worcester Regional Airport

Current Time: Sep 21, 2014 at 7:20:02 PM

Latest Report: Sep 21, 2014 at 6:54 PM


Visibility: 10 mi

Pressure: 29.65 "Hg

Humidity: 96%

Dew point: 67 °F

Location of WorcesterLocation

Historic Weather in Worcester — Graph

°F

Worcester temperature yesterday

Maximum temperature yesterday: 66 °F (at 2:54 PM)
Minimum temperature yesterday: 41 °F (at 1:54 AM)
Average temperature yesterday: 54 °F

Past Weeks' High & Low Weather Summary

 TemperatureHumidityPressure
High81 °F (Sep 6, 5:54 PM)100% (Sep 10, 1:54 AM)30.43 "Hg (Sep 10, 1:54 AM)
Low41 °F (Sep 19, 6:54 AM)37% (Sep 7, 2:54 PM)29.67 "Hg (Sep 21, 5:54 PM)
Average58 °F74%30.13 "Hg
* Reported Sep 6 5:54 PM — Sep 21 5:54 PM, Worcester, Weather by CustomWeather, © 2014

Note: Actual official high and low records may vary slightly from our data, if they occured in-between our weather recording intervals... More about our weather records

Advertising

Worcester weather history for previous 24 hours

 ConditionsComfort  
Time TempWeatherWind HumidityBarometerVisibility
5:54 PM
Sep 21
68 °FOvercast.6 mph93%29.67 "Hg10 mi
4:54 PM70 °FLight rain. Fog.7 mph90%29.71 "Hg4 mi
3:54 PM71 °FLight rain. Mostly cloudy.8 mph90%29.73 "Hg8 mi
2:54 PM72 °FScattered clouds.9 mph87%29.75 "Hg10 mi
1:54 PM75 °FBroken clouds.9 mph76%29.78 "Hg10 mi
12:54 PM73 °FBroken clouds.9 mph81%29.83 "Hg10 mi
11:54 AM72 °FBroken clouds.15 mph84%29.88 "Hg10 mi
10:54 AM69 °FCloudy.12 mph93%29.90 "Hg10 mi
9:54 AM67 °FFog.16 mph97%29.93 "Hg2 mi
8:54 AM65 °FFog.10 mph100%29.94 "Hg2 mi
7:54 AM64 °FMostly cloudy.9 mph97%29.95 "Hg3 mi
6:54 AM63 °FLight rain. Fog.9 mph97%29.97 "Hg4 mi
5:54 AM61 °FRain. Fog.7 mph97%29.96 "Hg1 mi
5:01 AM61 °FHeavy rain. Fog.6 mph100%29.98 "Hg2 mi
4:02 AM60 °FRain. Fog.7 mph100%30.00 "Hg3 mi
3:54 AM60 °FLight rain. Fog.7 mph100%30.00 "Hg4 mi
2:54 AM60 °FLight rain. Overcast.10 mph96%30.03 "Hg7 mi
1:54 AM61 °FLight rain. Overcast.17 mph90%30.06 "Hg8 mi
12:54 AM59 °FMostly cloudy.9 mph93%30.10 "Hg10 mi
11:54 PM
Sep 20
58 °FClear.13 mph90%30.11 "Hg10 mi
10:54 PM57 °FClear.13 mph90%30.12 "Hg10 mi
9:54 PM57 °FClear.8 mph90%30.14 "Hg10 mi
8:54 PM59 °FClear.8 mph84%30.16 "Hg10 mi
7:54 PM60 °FClear.9 mph80%30.16 "Hg10 mi
Weather by CustomWeather, © 2014

See weather overviewHow to use our weather pages